Wetbulb
63.38 60.77 62.13 61.81 55.58 53.90 49.85 49.76 53.32 52.99 54.11 57.82 57.76 55.99 55.92 57.66 54.88 52.39 66.07 68.51 69.31 68.90 70.23 71.40 71.35 71.56 71.15 71.14 70.59 69.94 69.48 67.94 67.56 67.30 67.57 67.49 67.05 67.14 67.03 67.26 68.00 67.49 68.81 68.59 66.69 65.82 65.50 65.51 65.58
60.32 59.18 62.22 58.83 52.53 48.59 50.41 51.32 50.86 54.74 57.88 59.73 58.78 58.18 57.24 56.15 61.55 62.16 63.93 67.89 69.29 69.29 70.39 71.01 70.38 71.44 70.78 70.55 70.50 69.87 69.37 68.67 67.13 67.35 67.87 67.90 67.03 67.29 66.95 66.87 67.75 67.55 67.42 66.80 66.13 65.63 65.70 65.53 65.18
59.10 58.92 59.41 56.37 52.55 48.20 49.34 51.03 53.14 56.79 58.60 58.34 57.96 59.86 58.58 58.30 62.53 63.34 67.32 68.96 69.13 69.67 70.52 70.97 70.29 70.99 70.43 70.34 70.30 69.87 69.36 68.68 66.83 66.75 67.31 67.63 66.93 67.31 66.73 66.82 67.35 67.45 67.62 66.25 66.03 65.76 65.79 65.43 65.21
59.67 60.25 57.41 52.08 49.26 49.92 50.54 53.21 54.97 56.77 56.92 58.11 59.20 56.43 60.47 63.77 63.57 66.46 68.70 69.05 68.85 69.52 70.52 69.82 70.52 70.71 70.49 70.26 69.88 69.26 68.65 67.59 67.28 66.92 66.95 66.47 66.60 66.22 65.68 66.53 66.99 66.73 66.51 66.30 65.78 65.40 65.50 65.29 64.88
60.52 58.40 53.87 50.85 49.63 50.01 51.02 54.60 57.17 56.46 56.00 57.26 58.24 55.21 58.18 63.45 65.88 67.87 68.02 68.54 68.37 69.00 69.95 70.47 70.13 70.65 70.89 70.22 69.89 69.87 68.83 67.63 67.10 66.57 66.66 65.87 66.12 65.35 65.15 66.06 66.42 65.91 65.86 66.32 65.95 65.14 64.87 64.23 64.02
57.96 56.67 51.43 48.99 50.37 50.33 52.02 56.26 57.36 56.20 56.26 57.51 57.12 56.62 58.62 64.49 65.62 66.73 68.18 68.59 68.99 67.92 68.71 69.62 67.60 68.95 69.93 70.25 69.73 69.42 68.95 68.35 67.36 66.68 66.76 66.20 66.14 65.38 64.70 65.04 65.57 65.06 65.63 65.52 65.46 65.26 64.45 63.80 63.73
55.80 55.03 50.87 50.42 50.60 49.69 52.41 56.98 55.72 55.75 55.85 56.46 59.42 55.40 59.53 63.11 65.94 66.80 68.22 68.61 67.97 67.36 67.52 68.48 69.39 68.66 66.91 67.86 68.23 68.48 68.50 67.87 67.46 67.29 66.56 66.11 65.89 65.16 64.84 64.55 65.23 65.10 65.37 65.14 64.90 64.58 64.15 63.82 63.28
56.47 55.27 49.23 50.18 49.63 49.89 53.21 55.42 55.50 56.08 55.36 59.20 60.78 55.24 55.06 63.34 65.05 66.29 67.37 67.37 66.74 66.58 66.87 67.30 68.22 68.95 69.12 69.14 65.16 66.01 66.65 66.63 66.43 65.71 64.32 63.45 63.24 63.40 64.01 63.92 65.25 65.01 64.89 64.62 64.20 64.05 63.93 63.73 62.84
54.60 51.87 49.22 50.28 48.84 50.30 51.79 53.57 54.80 57.05 57.18 58.39 59.89 58.75 60.26 65.34 64.95 64.57 64.60 64.99 65.31 65.32 66.10 67.10 67.70 68.37 68.76 68.51 66.10 64.10 64.27 64.42 63.90 63.12 61.30 61.99 64.63 64.65 63.92 62.68 64.25 64.74 64.45 63.70 63.37 63.10 62.89 62.98 62.10
53.58 50.43 50.23 52.75 52.35 51.15 52.05 52.57 54.31 55.18 55.97 56.90 58.14 60.91 61.75 65.04 63.29 61.88 61.78 61.85 62.82 63.55 64.92 66.24 67.08 67.58 68.14 67.64 67.98 67.52 66.49 66.06 65.26 65.17 64.70 64.85 64.75 64.67 63.57 61.35 61.85 63.13 63.33 63.51 63.08 62.25 60.80 61.11 63.57
51.56 49.03 52.22 51.76 51.50 51.13 51.54 51.58 55.39 54.49 53.67 56.85 57.15 59.23 61.30 62.93 62.96 62.09 61.65 62.86 63.17 63.91 64.77 65.76 66.39 67.27 67.38 67.28 67.38 67.15 66.66 65.92 65.23 65.17 65.07 64.84 64.50 64.17 63.67 63.28 62.30 62.94 59.56 63.16 62.79 62.53 63.51 62.79 64.11
49.72 51.45 52.03 52.21 50.00 50.66 51.04 52.84 52.51 54.94 55.49 56.70 58.87 60.14 61.60 61.91 61.40 61.58 61.53 61.68 63.90 64.19 64.40 65.44 66.52 66.56 67.15 67.26 67.00 66.90 65.91 65.57 64.64 64.52 64.28 63.72 63.35 63.34 62.89 62.34 62.26 62.63 62.86 63.00 63.23 63.43 63.48 63.24 63.19
51.28 51.85 51.90 52.91 52.36 52.35 50.22 51.06 52.34 52.61 57.30 55.55 55.83 59.14 60.68 61.77 62.33 62.80 62.95 62.71 63.85 64.23 64.34 64.79 65.99 66.06 66.59 66.86 66.80 66.53 65.72 65.07 64.71 64.01 63.86 63.41 62.54 62.18 62.16 62.01 61.87 61.74 62.62 62.92 62.96 62.87 62.92 62.98 62.65
52.04 51.50 52.69 52.32 50.95 50.06 49.03 51.01 49.01 52.10 53.88 54.84 56.66 58.06 60.27 61.28 62.08 62.04 61.48 62.16 64.40 64.69 64.73 64.81 65.03 66.06 66.15 66.06 66.20 66.07 66.08 65.43 64.55 63.59 63.33 63.27 63.35 62.47 61.69 61.51 61.42 61.53 62.43 63.20 63.51 62.98 62.97 63.05 62.93
51.90 49.19 51.09 52.12 53.24 51.49 49.39 48.42 47.66 53.88 52.24 52.74 55.63 57.85 59.43 60.95 62.24 62.10 62.88 63.82 64.75 65.01 65.44 64.25 64.39 65.80 65.46 65.54 65.87 66.08 65.97 65.22 64.25 63.47 63.26 63.41 63.16 62.37 61.33 61.12 61.00 61.42 62.63 63.21 63.41 63.30 63.31 62.87 61.99
49.83 49.72 46.21 51.39 50.51 51.61 50.72 47.82 53.95 54.26 52.27 52.84 53.75 55.74 58.03 59.71 61.26 62.58 63.43 64.08 65.43 65.68 65.17 65.34 64.30 64.29 65.43 65.30 65.64 65.72 65.79 65.18 64.63 63.91 63.44 63.59 63.55 62.92 61.38 60.65 61.09 62.31 62.85 63.06 62.91 62.88 62.39 62.21 61.18
45.25 44.03 44.60 47.30 49.76 48.78 48.33 49.09 54.80 53.57 50.93 51.87 54.00 54.39 55.65 57.45 59.89 61.75 63.20 64.03 64.88 65.31 65.34 65.01 65.20 64.54 64.81 65.64 65.51 65.43 65.41 65.19 64.82 64.30 63.59 63.57 63.62 63.44 62.64 61.96 61.97 62.72 62.55 62.61 62.64 62.35 62.22 61.45 61.14
41.98 41.72 42.73 44.23 48.21 46.89 47.93 47.12 52.04 51.12 50.30 52.08 53.67 53.82 53.94 55.64 57.49 60.46 62.27 63.38 64.31 65.10 65.58 65.69 65.31 65.20 65.13 65.36 65.31 65.00 64.59 64.60 64.93 64.38 63.77 63.40 63.34 63.50 63.15 62.86 62.55 62.38 62.08 62.03 62.27 61.87 62.28 61.93 60.89
44.54 42.04 40.97 42.77 47.66 45.41 46.44 46.78 48.99 51.85 51.96 51.20 52.77 53.35 53.40 53.90 56.98 59.16 60.86 62.54 63.21 64.10 64.58 65.04 65.09 65.13 64.95 64.21 63.30 62.35 61.72 63.27 63.58 64.04 64.02 63.64 63.28 63.11 63.12 62.98 62.76 62.61 61.72 61.77 62.05 61.94 61.32 60.71 59.91
43.42 41.32 39.44 43.34 45.47 44.00 45.98 45.63 49.03 50.59 50.56 51.82 52.72 53.66 53.93 54.22 55.13 55.70 57.91 60.28 61.64 62.71 63.54 64.16 64.71 65.28 64.91 64.54 64.04 63.74 63.51 64.15 64.35 64.19 63.80 63.68 63.28 63.12 62.95 62.99 62.73 62.65 61.81 61.54 61.54 61.19 60.21 59.98 59.04
42.68 40.06 39.70 39.75 43.00 45.22 44.00 43.60 46.35 49.95 50.47 51.61 52.85 53.98 55.21 55.94 56.06 57.15 56.85 57.83 60.39 61.25 62.60 63.40 63.99 64.79 65.16 64.73 64.53 63.83 64.10 63.62 62.69 63.26 62.75 62.85 62.83 62.81 62.92 62.67 62.95 62.59 62.13 61.17 61.23 61.26 60.52 58.49 59.42
39.91 44.84 43.85 42.04 38.69 35.53 43.55 35.14 44.28 47.06 47.00 47.88 49.61 51.69 52.71 54.07 56.10 57.04 57.81 57.51 58.88 60.93 62.70 63.44 64.11 64.31 64.98 65.12 63.95 62.84 61.83 60.56 62.69 63.42 63.34 63.26 62.68 62.29 62.43 62.31 62.38 62.39 62.28 61.32 61.70 61.40 61.08 60.40 57.75
42.62 45.86 44.16 42.71 40.05 39.22 39.89 36.07 41.16 45.94 44.40 47.31 50.29 51.61 51.99 52.85 53.30 53.65 55.18 57.15 58.10 60.68 61.85 62.89 63.39 63.78 64.46 64.99 64.62 63.59 62.50 63.79 64.08 64.02 63.66 63.21 63.27 62.55 62.27 62.10 62.12 61.77 62.15 61.56 61.21 60.82 60.57 60.92 59.94
46.36 44.08 43.19 42.83 40.64 33.56 38.66 37.92 39.05 42.98 45.17 47.81 50.29 51.59 52.40 52.75 53.47 54.27 55.31 55.95 56.12 58.23 60.51 61.85 62.15 62.58 63.55 63.99 64.28 63.92 62.81 62.91 63.27 63.46 62.71 62.54 62.99 62.63 62.41 62.10 61.96 61.85 61.52 61.10 61.16 61.45 60.85 60.61 60.45
44.38 41.00 33.36 32.03 31.66 30.46 37.18 37.39 40.53 46.14 47.23 47.47 48.88 50.98 52.36 52.96 53.06 53.71 54.18 54.50 54.59 55.39 57.50 59.72 60.86 60.95 62.42 62.93 63.49 63.93 64.17 63.36 62.82 63.19 63.02 62.29 62.10 61.74 61.72 61.72 61.28 61.44 61.69 61.41 61.31 61.02 60.71 60.52 60.25
41.41 40.40 33.58 26.15 28.34 32.80 35.25 33.62 40.34 47.29 49.63 50.58 50.30 50.31 50.46 51.03 51.82 51.91 53.15 54.17 54.94 55.00 55.94 58.09 58.83 59.59 61.09 61.71 62.39 63.57 63.92 64.11 63.98 63.85 63.75 62.87 62.86 62.43 62.51 61.81 61.59 61.55 61.41 61.09 60.97 60.90 60.75 60.71 60.81
40.15 36.52 42.29 33.08 26.79 31.04 36.07 39.63 43.23 45.45 45.67 46.24 46.85 48.32 49.57 51.04 51.71 51.12 52.23 53.09 54.07 54.49 54.69 56.10 57.84 58.83 60.06 60.83 61.90 62.45 63.26 63.34 63.38 63.54 63.90 63.47 63.21 62.49 62.42 62.04 61.36 61.61 61.43 61.04 60.76 60.66 60.09 59.72 59.19
42.93 43.45 34.43 33.78 29.05 27.05 34.19 35.14 37.77 41.20 43.02 46.01 46.47 47.17 48.69 50.19 49.80 50.56 51.05 51.62 52.72 53.55 54.31 55.19 57.05 57.91 59.44 60.48 61.04 61.41 62.08 62.65 63.06 63.26 62.84 62.65 62.88 62.46 61.18 61.33 61.19 61.14 61.07 60.84 60.45 59.89 58.73 57.54 57.36
38.94 37.90 37.63 38.23 35.14 30.47 28.91 35.42 44.58 44.84 46.34 45.69 45.99 46.33 46.89 46.72 47.66 48.47 49.35 50.44 50.33 50.83 50.26 52.02 54.83 57.01 58.37 59.57 60.39 60.90 61.41 61.61 62.10 62.30 62.40 62.30 62.23 61.83 61.04 60.56 60.47 60.43 60.31 60.30 59.09 57.67 57.29 56.30 56.46
43.09 39.55 39.29 33.12 31.47 33.69 32.70 33.75 44.93 45.67 45.24 43.45 45.70 46.80 45.75 44.79 45.47 47.39 48.34 48.18 48.84 48.53 48.23 48.58 52.91 55.71 57.86 59.32 59.79 60.29 60.63 60.89 60.75 60.93 61.44 61.71 61.06 61.53 60.31 60.09 59.57 59.51 59.26 59.27 58.20 57.03 56.34 56.07 55.31
MSLP
1015.32 1014.73 1014.35 1013.78 1013.80 1013.65 1013.77 1014.76 1015.39 1015.59 1015.98 1016.68 1016.99 1017.07 1016.85 1017.47 1017.85 1018.85 1019.89 1019.87 1019.62 1020.09 1020.54 1021.01 1021.35 1021.52 1021.70 1021.91 1021.98 1022.10 1022.20 1022.31 1022.29 1022.39 1022.51 1022.64 1022.67 1022.78 1022.91 1022.89 1022.92 1023.01 1022.92 1023.01 1023.18 1023.32 1023.45 1023.48 1023.48
1015.25 1014.65 1014.13 1013.98 1013.82 1013.65 1013.79 1015.07 1015.53 1015.90 1016.65 1017.13 1017.55 1017.65 1017.57 1017.82 1018.69 1019.59 1020.07 1020.25 1019.93 1020.25 1020.57 1020.92 1021.61 1021.67 1021.91 1022.16 1022.25 1022.30 1022.41 1022.50 1022.57 1022.64 1022.78 1022.90 1022.97 1023.08 1023.19 1023.23 1023.27 1023.32 1023.29 1023.32 1023.51 1023.63 1023.65 1023.76 1023.78
1015.55 1014.99 1014.12 1014.18 1014.25 1014.02 1014.39 1015.32 1015.83 1016.76 1017.31 1017.36 1017.60 1018.14 1018.12 1018.25 1019.00 1019.62 1019.84 1020.16 1020.19 1020.46 1020.74 1021.32 1021.84 1021.99 1022.09 1022.32 1022.44 1022.54 1022.61 1022.70 1022.84 1022.91 1023.07 1023.18 1023.24 1023.36 1023.47 1023.50 1023.51 1023.50 1023.56 1023.59 1023.75 1023.89 1023.99 1024.01 1024.04
1015.36 1014.83 1015.19 1014.57 1014.39 1014.82 1015.09 1015.63 1016.23 1016.99 1017.50 1017.73 1017.85 1017.89 1018.78 1019.14 1019.14 1019.53 1019.87 1020.20 1020.27 1020.71 1021.01 1021.80 1021.96 1022.18 1022.25 1022.44 1022.62 1022.81 1022.89 1022.98 1023.05 1023.24 1023.43 1023.54 1023.65 1023.69 1023.77 1023.78 1023.81 1023.91 1023.95 1023.98 1024.09 1024.12 1024.23 1024.33 1024.39
1015.60 1015.25 1014.79 1014.79 1014.86 1015.25 1015.57 1016.05 1016.36 1016.77 1017.10 1017.48 1017.93 1017.92 1018.51 1019.37 1019.69 1020.02 1020.12 1020.27 1020.36 1020.83 1021.03 1021.71 1022.07 1022.29 1022.46 1022.61 1022.76 1022.89 1023.01 1023.18 1023.25 1023.37 1023.63 1023.83 1024.01 1024.09 1024.05 1024.00 1024.06 1024.19 1024.23 1024.23 1024.32 1024.47 1024.58 1024.65 1024.65
1015.53 1015.73 1015.10 1014.82 1014.98 1015.52 1015.82 1016.18 1016.41 1016.68 1017.08 1017.57 1017.76 1017.93 1018.56 1019.46 1019.83 1020.21 1020.33 1020.24 1020.43 1020.90 1021.37 1021.59 1022.25 1022.38 1022.54 1022.66 1022.89 1023.08 1023.22 1023.33 1023.54 1023.67 1023.77 1023.98 1024.16 1024.33 1024.32 1024.35 1024.36 1024.38 1024.45 1024.57 1024.67 1024.74 1024.86 1024.92 1024.89
1015.76 1015.76 1015.32 1015.40 1015.34 1015.61 1015.87 1016.42 1016.40 1016.57 1016.94 1017.24 1017.63 1017.54 1018.52 1019.31 1019.88 1020.42 1020.30 1020.33 1020.61 1021.00 1021.48 1021.65 1021.96 1022.25 1022.61 1022.76 1022.96 1023.17 1023.37 1023.57 1023.72 1023.86 1024.06 1024.31 1024.47 1024.61 1024.62 1024.61 1024.60 1024.62 1024.69 1024.82 1024.95 1024.99 1024.94 1024.92 1024.99
1016.44 1016.20 1015.90 1015.79 1015.60 1015.65 1016.25 1016.42 1016.68 1016.69 1016.96 1017.88 1017.67 1017.29 1017.83 1018.66 1020.16 1020.59 1020.61 1020.71 1020.88 1021.15 1021.44 1021.60 1021.81 1022.07 1022.24 1022.73 1023.12 1023.38 1023.51 1023.72 1023.94 1024.17 1024.36 1024.58 1024.78 1024.96 1025.01 1024.91 1024.85 1024.92 1025.06 1025.14 1025.08 1024.99 1024.98 1025.01 1025.17
1017.13 1016.29 1015.75 1015.81 1015.99 1015.88 1016.72 1016.49 1016.93 1017.21 1017.17 1017.62 1017.78 1017.91 1018.64 1019.01 1020.25 1020.70 1020.89 1020.98 1021.10 1021.28 1021.51 1021.55 1021.74 1021.91 1022.06 1022.40 1022.97 1023.33 1023.57 1023.81 1024.02 1024.22 1024.50 1024.67 1024.43 1024.68 1024.81 1024.98 1025.02 1025.01 1025.08 1025.17 1025.18 1025.19 1025.20 1025.17 1025.33
1016.79 1016.32 1015.97 1016.23 1016.27 1016.25 1016.64 1016.61 1016.68 1016.95 1016.95 1017.18 1017.49 1018.22 1018.93 1019.37 1020.15 1020.54 1020.84 1020.99 1021.23 1021.21 1021.47 1021.57 1021.75 1021.90 1022.12 1022.44 1022.96 1022.98 1023.38 1023.57 1023.58 1023.85 1024.21 1024.25 1024.44 1024.58 1024.71 1025.16 1025.32 1025.29 1025.29 1025.28 1025.30 1025.32 1025.29 1025.10 1024.74
1017.44 1016.45 1016.51 1016.60 1016.86 1016.86 1016.69 1016.67 1016.78 1016.44 1016.38 1016.11 1016.41 1017.35 1018.57 1019.26 1019.93 1020.28 1020.64 1020.82 1020.75 1020.96 1021.34 1021.51 1021.68 1021.88 1022.07 1022.42 1022.64 1022.84 1023.05 1023.26 1023.58 1023.76 1023.98 1024.14 1024.36 1024.68 1024.68 1024.85 1025.10 1025.15 1025.41 1024.95 1025.07 1025.13 1024.77 1024.86 1024.72
1017.58 1017.26 1017.11 1016.99 1017.34 1017.20 1016.81 1016.64 1016.51 1016.23 1015.54 1016.18 1016.44 1017.03 1018.16 1018.83 1019.36 1019.75 1020.17 1020.56 1020.63 1020.62 1020.92 1021.22 1021.34 1021.73 1021.91 1022.23 1022.56 1022.69 1022.94 1023.15 1023.38 1023.66 1023.93 1024.06 1024.18 1024.36 1024.44 1024.52 1024.67 1024.88 1024.89 1024.87 1024.86 1024.78 1024.93 1024.90 1024.88
1017.81 1017.45 1017.45 1017.36 1017.42 1017.40 1017.26 1016.68 1016.21 1015.89 1015.81 1016.31 1016.72 1017.34 1017.68 1018.22 1018.68 1019.33 1019.87 1020.29 1020.47 1020.37 1020.66 1020.98 1021.02 1021.23 1021.63 1022.01 1022.23 1022.46 1022.65 1023.04 1023.17 1023.54 1023.77 1023.75 1023.88 1024.09 1024.19 1024.28 1024.45 1024.55 1024.68 1024.64 1024.67 1024.72 1024.73 1024.77 1024.77
1018.03 1017.85 1017.55 1017.54 1017.41 1017.44 1017.34 1016.76 1016.78 1015.48 1015.69 1016.07 1016.54 1016.72 1017.15 1017.63 1018.21 1018.98 1019.45 1019.70 1019.71 1019.97 1020.17 1020.68 1020.92 1020.91 1021.03 1021.42 1021.83 1022.08 1022.34 1022.58 1022.98 1023.24 1023.45 1023.74 1023.61 1023.73 1023.99 1024.18 1024.29 1024.40 1024.48 1024.43 1024.43 1024.40 1024.42 1024.41 1024.57
1018.47 1018.16 1017.82 1017.49 1017.37 1017.29 1017.35 1016.73 1016.03 1015.40 1015.73 1015.74 1015.99 1016.21 1016.58 1017.04 1017.56 1017.84 1018.29 1018.63 1018.85 1019.24 1019.67 1020.14 1020.70 1020.82 1020.82 1020.92 1021.24 1021.58 1021.99 1022.28 1022.49 1022.78 1023.13 1023.28 1023.40 1023.46 1023.61 1023.74 1023.94 1024.10 1024.33 1024.49 1024.47 1024.48 1024.50 1024.35 1024.39
1018.62 1018.40 1017.56 1017.11 1017.47 1017.25 1017.30 1015.50 1014.91 1015.45 1015.61 1015.14 1015.24 1015.62 1016.01 1016.31 1016.65 1017.15 1017.52 1017.75 1017.93 1018.40 1018.82 1019.39 1019.99 1020.58 1020.56 1020.47 1020.71 1020.96 1021.41 1021.98 1022.11 1022.37 1022.64 1022.95 1023.09 1023.14 1023.34 1023.41 1023.54 1023.72 1024.00 1024.13 1024.14 1024.06 1024.10 1024.08 1024.15
1019.19 1017.88 1017.85 1017.57 1017.67 1017.37 1017.11 1015.65 1014.95 1015.51 1015.49 1015.01 1014.64 1014.79 1015.25 1015.61 1016.01 1016.08 1016.58 1017.01 1017.24 1017.65 1018.02 1018.53 1019.11 1019.54 1020.10 1020.17 1020.32 1020.57 1020.86 1021.29 1021.55 1021.84 1022.19 1022.46 1022.74 1022.89 1022.96 1023.01 1023.10 1023.39 1023.56 1023.69 1023.68 1023.73 1023.84 1023.84 1023.93
1018.71 1018.93 1018.61 1017.86 1017.80 1017.80 1016.96 1016.04 1015.31 1015.44 1015.41 1014.83 1014.43 1014.36 1014.71 1014.89 1014.94 1015.14 1015.79 1016.34 1016.57 1017.02 1017.42 1017.76 1018.29 1018.69 1019.04 1019.60 1019.93 1020.15 1020.45 1020.69 1020.88 1021.05 1021.37 1021.71 1022.11 1022.41 1022.58 1022.63 1022.77 1023.09 1023.18 1023.23 1023.43 1023.51 1023.56 1023.53 1023.77
1019.48 1019.35 1019.10 1018.93 1018.74 1018.33 1017.25 1016.21 1015.11 1014.88 1014.79 1014.54 1014.14 1013.90 1013.97 1013.96 1013.89 1014.51 1015.10 1015.57 1016.07 1016.34 1016.57 1016.91 1017.19 1017.70 1018.38 1018.73 1019.13 1019.45 1019.61 1019.99 1020.27 1020.44 1020.81 1021.04 1021.29 1021.72 1021.94 1022.07 1022.21 1022.50 1022.70 1022.75 1022.84 1023.02 1023.19 1023.45 1024.01
1020.01 1019.86 1019.94 1019.65 1019.88 1019.12 1017.75 1016.07 1014.81 1014.60 1014.25 1013.87 1013.42 1013.12 1013.15 1013.22 1013.19 1013.57 1014.11 1014.52 1014.81 1015.02 1015.49 1015.77 1015.95 1016.59 1017.23 1017.64 1018.08 1018.47 1018.77 1018.95 1019.23 1019.72 1020.16 1020.50 1020.65 1020.96 1021.26 1021.46 1021.53 1021.75 1022.09 1022.18 1022.33 1022.65 1022.83 1023.09 1023.66
1020.18 1020.08 1020.26 1020.63 1020.69 1019.93 1018.68 1015.92 1014.07 1013.24 1013.27 1012.93 1012.53 1012.32 1012.02 1011.86 1011.97 1012.11 1012.67 1013.16 1013.58 1013.87 1013.93 1014.45 1015.06 1015.49 1015.90 1016.51 1017.25 1017.72 1017.97 1018.31 1018.63 1018.74 1019.18 1019.37 1019.75 1020.07 1020.45 1020.65 1020.75 1020.89 1021.23 1021.36 1021.64 1022.06 1022.40 1022.54 1022.85
1019.31 1019.66 1020.13 1020.48 1021.08 1020.66 1019.29 1015.65 1013.62 1012.82 1012.46 1012.12 1011.62 1011.37 1010.90 1010.74 1010.90 1011.02 1011.19 1011.64 1012.17 1012.31 1013.10 1013.65 1013.90 1014.53 1014.82 1015.61 1016.12 1016.29 1016.45 1016.84 1017.05 1017.60 1018.06 1018.28 1018.76 1019.05 1019.34 1019.65 1019.93 1020.07 1020.34 1020.66 1021.05 1021.29 1021.60 1021.78 1021.71
1018.46 1019.12 1019.50 1020.15 1020.53 1020.28 1018.53 1017.60 1013.05 1012.59 1011.83 1011.07 1010.36 1010.02 1009.78 1009.85 1010.10 1010.12 1010.35 1010.63 1010.97 1011.81 1012.17 1012.49 1012.96 1013.35 1014.01 1014.62 1014.89 1015.29 1015.52 1015.55 1016.11 1016.69 1016.92 1017.38 1017.58 1018.01 1018.29 1018.71 1019.03 1019.43 1019.71 1019.99 1020.23 1020.40 1020.60 1020.80 1020.93
1018.82 1019.20 1019.87 1020.08 1020.20 1019.16 1017.37 1016.58 1012.47 1011.39 1010.61 1009.78 1009.46 1009.23 1009.20 1009.40 1009.71 1009.87 1010.03 1010.34 1010.55 1011.10 1011.58 1011.92 1012.21 1012.35 1012.78 1013.40 1013.73 1013.94 1014.36 1014.77 1015.10 1015.56 1016.05 1016.42 1016.77 1017.19 1017.57 1018.09 1018.44 1018.55 1018.85 1019.02 1019.16 1019.48 1019.70 1019.94 1020.09
1018.45 1018.72 1019.47 1019.84 1019.57 1017.05 1016.47 1015.37 1012.29 1010.67 1010.20 1009.40 1009.07 1008.75 1009.16 1009.36 1009.55 1009.51 1009.57 1009.91 1010.14 1010.26 1010.67 1011.04 1011.43 1011.57 1012.00 1012.33 1012.73 1012.99 1013.03 1013.66 1014.04 1014.45 1015.02 1015.51 1015.80 1016.23 1016.55 1017.06 1017.37 1017.51 1017.62 1017.84 1018.19 1018.56 1018.86 1019.13 1019.19
1017.98 1018.13 1018.26 1018.42 1018.38 1016.78 1016.51 1013.83 1010.95 1009.91 1009.60 1009.19 1009.20 1009.41 1009.30 1009.39 1009.66 1009.68 1009.49 1009.56 1009.52 1009.73 1010.04 1010.39 1010.55 1010.60 1010.96 1011.39 1011.57 1011.97 1012.39 1012.74 1013.06 1013.54 1014.00 1014.45 1014.60 1014.91 1015.45 1015.81 1016.06 1016.34 1016.70 1017.02 1017.39 1017.78 1017.96 1018.27 1018.45
1017.89 1018.23 1018.12 1018.75 1019.21 1017.48 1014.79 1012.52 1011.28 1009.92 1009.14 1009.28 1009.14 1009.43 1009.35 1009.32 1009.19 1009.28 1009.04 1009.00 1008.94 1009.02 1009.16 1009.46 1009.81 1010.00 1010.19 1010.45 1010.99 1011.32 1011.73 1011.97 1012.15 1012.63 1013.11 1013.47 1013.80 1014.04 1014.51 1014.94 1015.29 1015.54 1015.83 1016.21 1016.66 1016.93 1017.23 1017.60 1017.76
1017.04 1017.78 1019.03 1019.14 1018.26 1016.29 1013.40 1011.78 1009.70 1009.41 1008.73 1008.69 1009.02 1009.29 1009.27 1009.47 1009.37 1009.16 1009.04 1008.91 1008.71 1008.62 1008.60 1008.80 1009.01 1009.18 1009.51 1009.80 1010.19 1010.49 1010.88 1011.27 1011.61 1012.03 1012.25 1012.63 1013.01 1013.51 1014.00 1014.25 1014.54 1014.83 1015.16 1015.55 1016.01 1016.32 1016.64 1016.95 1017.11
1017.46 1017.75 1018.29 1017.85 1017.40 1015.78 1013.24 1010.37 1009.05 1008.55 1008.40 1008.64 1009.08 1009.25 1009.37 1009.60 1009.61 1009.41 1009.07 1008.94 1008.87 1008.62 1008.62 1008.68 1008.67 1008.89 1009.09 1009.28 1009.50 1009.84 1010.12 1010.64 1010.97 1011.17 1011.46 1011.93 1012.45 1012.71 1013.08 1013.46 1013.87 1014.20 1014.51 1014.83 1015.28 1015.64 1016.01 1016.49 1016.76
1016.35 1016.81 1017.28 1016.76 1016.48 1015.80 1013.86 1009.98 1008.92 1008.54 1008.80 1009.30 1009.17 1008.99 1009.32 1009.75 1009.82 1009.66 1009.13 1008.88 1008.66 1008.71 1008.73 1008.90 1008.62 1008.52 1008.60 1008.77 1009.08 1009.21 1009.49 1009.92 1010.37 1010.58 1010.82 1011.26 1011.60 1012.08 1012.52 1012.90 1013.26 1013.48 1013.73 1014.05 1014.47 1014.90 1015.30 1015.62 1015.89
Wind_Speed
11 7 3 2 4 3 0 2 1 5 6 3 4 3 1 4 2 4 5 6 11 11 9 11 9 13 13 13 13 11 12 12 12 12 14 12 12 13 12 12 14 12 14 17 17 16 15 15 16
8 4 0 1 4 4 1 2 5 4 4 8 5 3 3 3 3 5 8 5 11 11 10 11 9 13 13 12 12 12 11 11 12 13 12 13 12 14 13 11 13 13 14 16 16 15 15 15 15
3 5 2 0 1 5 3 2 5 6 6 3 3 1 1 3 3 9 4 12 11 10 10 11 9 12 13 12 12 11 11 11 11 12 13 12 12 14 13 10 13 13 14 15 15 15 15 14 14
3 1 3 5 4 1 2 2 5 11 3 2 0 2 2 2 4 6 11 14 12 10 10 11 10 11 12 11 13 12 13 12 12 12 13 12 12 13 11 11 13 13 13 14 14 14 14 13 12
2 1 3 3 3 1 2 1 9 10 4 4 3 2 2 4 4 7 13 13 12 10 10 11 9 9 9 11 13 13 13 12 11 11 12 12 11 11 11 11 13 13 12 13 13 13 13 12 12
2 1 4 7 4 1 1 6 8 7 3 5 4 3 3 4 7 10 12 13 11 10 8 10 8 8 8 10 13 13 12 12 11 11 12 12 10 11 11 11 11 12 12 12 11 11 10 10 11
2 2 3 4 4 2 4 8 7 7 5 4 2 3 3 8 7 10 12 10 10 9 8 9 10 10 7 8 10 11 11 10 11 9 11 11 9 9 9 10 10 11 12 11 11 9 8 8 9
2 3 4 4 4 3 5 8 2 6 4 3 2 2 2 9 10 10 11 10 9 9 9 9 9 11 12 11 9 9 10 10 9 7 8 8 8 8 7 6 8 10 10 10 9 8 8 8 9
1 5 6 5 6 1 5 8 3 1 4 3 5 1 4 11 13 11 10 10 9 8 8 9 10 10 10 11 10 10 10 9 9 9 9 9 7 8 9 7 8 10 10 9 7 7 7 7 8
5 4 6 1 2 2 4 6 7 6 7 7 6 5 4 14 14 15 13 12 12 11 10 9 10 10 10 8 10 9 9 8 8 9 11 7 7 6 5 6 6 6 6 6 6 6 5 5 4
3 5 3 3 3 4 3 6 5 6 7 8 9 10 11 13 14 14 14 14 14 13 10 11 10 10 11 8 7 5 5 5 6 9 9 7 6 7 6 5 6 6 5 4 5 6 4 3 2
6 4 3 2 2 3 4 4 6 10 4 2 5 6 13 16 17 17 15 14 14 15 14 14 13 11 11 7 7 7 6 6 5 7 9 7 5 6 6 5 5 5 4 4 4 3 3 3 3
7 4 4 4 5 5 1 6 6 10 10 3 4 9 14 15 16 15 15 14 15 15 15 14 14 13 11 11 8 7 7 6 6 7 8 7 6 6 6 6 5 5 5 4 4 4 4 4 4
3 5 4 2 2 3 5 6 4 7 6 9 7 10 12 15 16 14 15 16 17 16 16 15 15 14 13 12 11 9 8 8 7 7 8 9 6 6 6 6 6 5 5 4 4 4 5 4 4
4 5 4 8 8 4 4 11 11 9 6 8 10 9 11 14 15 19 18 18 17 16 15 16 15 15 14 14 12 10 9 8 8 8 10 11 9 8 8 6 6 5 5 5 5 5 4 4 4
7 4 10 6 6 3 7 20 12 11 10 13 12 10 12 15 17 16 16 16 17 16 17 16 13 14 15 14 11 9 9 9 8 8 8 12 11 10 8 6 6 6 5 5 5 5 5 5 4
3 13 9 7 7 2 11 15 13 6 9 14 14 13 12 12 15 17 17 16 17 17 17 17 17 17 17 15 11 11 11 10 9 9 9 12 12 11 9 7 7 7 6 6 6 6 6 5 5
9 8 6 9 3 7 13 18 14 5 7 12 14 13 12 13 17 17 16 17 17 17 17 17 15 18 17 12 11 9 9 9 9 10 10 13 11 12 10 8 8 8 7 7 6 8 7 7 4
5 4 5 0 3 4 14 18 21 16 16 15 14 14 16 17 17 12 13 15 16 16 18 19 19 19 14 12 11 11 10 11 10 10 13 14 13 13 12 9 10 9 9 9 10 9 9 7 4
6 6 3 4 2 2 13 18 21 19 16 19 20 19 17 14 15 14 15 15 18 19 20 21 21 19 16 13 12 10 11 11 11 10 12 14 14 14 12 13 11 11 9 11 11 10 7 7 7
8 5 3 1 7 10 13 22 25 18 19 21 22 22 22 23 22 21 19 19 18 20 22 21 21 22 20 19 12 10 8 7 9 11 11 13 16 15 15 15 13 12 11 10 12 11 12 8 8
18 13 11 7 3 3 5 10 18 17 16 16 19 21 24 25 24 22 21 19 19 21 18 21 21 22 20 21 16 17 14 13 12 12 11 12 16 16 16 16 15 14 10 12 10 10 11 11 10
10 16 17 12 10 10 15 9 8 8 13 19 21 20 22 22 21 23 22 20 18 15 17 19 21 21 21 20 20 16 17 13 11 11 14 15 14 17 17 16 15 14 10 12 13 13 13 11 11
12 11 6 4 5 10 17 16 9 9 9 15 18 19 17 16 17 18 17 15 16 14 15 16 19 21 22 21 23 23 21 18 13 14 12 11 11 11 15 15 14 14 13 14 13 14 15 13 13
11 11 3 4 6 11 3 11 17 10 16 17 15 14 9 9 11 13 13 13 14 16 17 16 19 20 21 22 22 22 22 21 20 17 13 13 11 10 12 15 14 12 14 14 13 13 13 14 13
16 13 5 7 8 3 4 13 7 20 21 20 17 16 15 14 12 13 13 12 12 13 14 16 18 20 20 21 22 19 22 13 14 16 12 11 11 11 14 14 15 15 15 14 13 10 11 12 11
8 8 7 1 1 3 6 11 12 16 15 11 13 11 12 13 12 13 14 13 13 12 14 16 17 18 19 20 18 19 18 19 16 18 15 12 13 11 13 13 13 14 14 14 14 10 12 11 11
6 11 4 3 7 8 10 12 11 3 8 13 12 9 9 9 11 12 11 13 12 13 12 12 15 18 17 18 17 15 17 17 16 14 16 16 13 13 12 13 13 13 13 13 13 10 10 9 8
5 4 4 3 4 3 4 9 4 13 12 9 7 5 8 9 8 11 12 11 13 11 8 10 11 14 14 16 16 16 15 16 16 14 14 14 13 13 14 13 13 13 12 12 11 10 9 8 9
16 13 14 4 7 5 6 14 8 8 5 3 11 12 5 6 8 10 11 12 11 10 6 7 9 12 13 13 15 15 16 15 14 15 15 13 14 13 13 12 12 12 12 11 12 10 9 10 10
Wind_Direction
320 334 319 285 263 279 339 134 24 152 156 89 124 223 255 24 300 15 118 121 147 145 149 160 146 134 124 126 122 118 117 111 112 106 96 99 97 99 96 99 97 88 92 99 92 88 87 87 82
334 318 81 71 265 273 58 134 188 144 87 124 128 148 193 93 94 93 144 163 154 145 152 150 137 129 130 135 130 125 118 116 110 103 105 101 103 101 102 103 99 94 94 92 91 94 95 90 84
321 337 287 349 216 258 314 182 138 119 125 152 148 327 357 84 115 150 122 152 151 146 148 127 137 135 141 141 136 128 125 120 112 108 109 105 101 102 101 104 101 95 99 98 96 98 94 91 85
352 139 125 244 214 142 322 118 148 149 184 183 260 166 158 15 135 172 147 153 155 146 150 135 144 148 146 141 140 131 123 114 124 110 107 104 100 101 107 109 105 96 93 99 103 99 93 87 82
40 286 223 228 215 183 215 189 171 175 148 160 176 150 122 140 101 142 155 162 156 157 151 155 152 150 152 150 147 138 132 131 115 120 115 107 112 112 117 117 107 105 107 107 108 105 100 94 85
114 297 243 233 209 171 216 160 169 186 159 134 202 174 133 124 149 159 162 165 159 157 161 154 156 150 152 153 152 141 135 136 135 126 124 121 119 120 120 122 118 116 108 105 103 105 104 94 85
123 222 262 285 246 236 174 159 190 184 183 179 125 218 105 169 172 173 167 162 161 156 167 165 172 159 153 138 139 139 138 135 135 134 129 121 117 119 122 127 126 127 116 109 104 103 108 114 102
117 232 200 221 233 223 156 173 178 200 186 106 200 219 128 167 161 175 168 167 168 163 171 170 173 175 166 156 135 135 135 137 135 121 120 115 120 112 100 115 123 120 115 114 120 122 113 125 111
210 215 226 230 202 129 158 197 138 65 165 200 188 253 79 144 151 162 168 173 174 172 183 172 174 177 174 170 154 145 143 136 128 126 112 155 148 152 168 74 121 134 136 132 131 123 113 118 115
225 233 211 287 217 218 190 222 166 190 188 210 203 183 157 153 165 173 178 179 185 182 185 186 184 184 181 174 170 171 157 169 169 166 168 166 161 160 154 134 134 128 123 126 126 121 132 207 146
173 241 185 184 263 254 215 205 182 203 212 224 218 188 172 170 180 187 194 195 193 187 184 195 190 188 190 181 182 180 180 174 177 176 176 173 170 169 180 160 170 169 192 172 176 170 183 139 151
210 226 221 149 151 215 212 149 201 218 221 60 227 172 170 183 192 197 198 200 203 195 194 192 190 194 196 192 198 190 189 185 183 186 183 178 182 183 182 187 183 192 195 185 197 183 159 173 177
219 189 208 244 259 279 186 227 230 232 220 164 140 177 189 197 197 203 206 206 207 206 200 198 195 197 197 198 199 200 199 196 192 188 191 192 190 191 188 189 193 197 194 205 195 190 195 199 203
180 215 221 239 226 235 240 245 232 230 204 203 194 196 200 205 202 202 210 213 211 209 203 198 202 202 196 199 201 201 201 197 195 197 196 202 203 196 197 198 203 204 210 208 216 205 209 215 222
157 227 228 226 234 240 217 242 230 234 179 210 214 212 208 209 204 210 207 215 211 208 201 202 200 210 207 205 199 202 204 203 200 201 201 199 201 204 203 204 206 210 208 222 222 217 228 230 219
200 212 238 178 195 211 212 254 234 244 225 226 222 221 218 215 214 218 218 218 213 212 208 203 198 202 213 210 206 202 204 209 208 205 203 205 206 206 206 208 209 205 211 220 226 225 230 238 236
219 236 223 247 212 199 214 258 259 248 237 248 241 236 231 230 225 226 220 218 216 215 211 207 201 201 209 215 214 214 209 210 211 209 212 210 213 210 215 215 217 210 216 220 226 231 240 235 234
208 220 219 229 169 229 238 252 249 244 249 250 255 247 245 239 234 228 221 222 219 216 216 211 206 211 204 209 213 215 216 217 216 213 212 211 214 214 215 223 221 216 220 223 221 229 223 241 248
155 182 242 326 282 271 254 259 267 260 248 249 251 248 245 242 242 231 222 221 223 221 217 214 209 209 205 204 204 209 211 213 216 217 217 216 215 215 217 222 222 217 222 224 224 224 231 228 203
197 178 167 333 358 309 277 270 272 259 251 250 247 246 245 242 242 229 224 217 216 217 216 215 215 207 204 206 208 208 208 220 217 215 216 218 215 215 217 221 221 217 221 225 225 220 225 240 188
197 175 145 146 351 289 289 274 269 253 241 248 245 246 247 247 244 244 230 223 220 217 216 214 214 212 206 208 202 207 218 216 216 220 216 216 215 213 214 219 220 218 219 225 222 221 222 232 211
211 199 200 198 59 279 324 291 276 277 258 247 252 243 244 244 240 245 244 232 219 220 216 217 214 214 213 205 204 204 205 209 218 218 219 217 212 214 214 219 220 221 218 225 225 221 224 226 236
229 172 192 203 212 267 256 262 260 255 262 259 254 249 244 246 248 247 245 249 238 225 216 216 217 213 214 209 210 209 217 221 222 222 224 219 214 218 216 218 219 222 222 226 225 219 223 225 236
145 134 153 159 204 248 250 225 255 260 253 256 256 252 254 250 250 251 253 253 246 235 225 222 219 218 212 210 211 213 216 220 217 218 221 222 221 218 222 222 224 224 224 224 226 228 227 225 231
179 161 169 187 194 246 34 224 253 251 240 244 255 257 273 262 258 263 259 246 242 232 224 221 219 223 216 214 214 216 216 215 220 219 218 222 219 217 218 214 217 219 223 225 226 228 231 227 231
190 186 191 215 209 248 96 240 249 243 247 262 257 273 284 278 272 269 271 264 248 237 232 227 222 225 218 217 217 215 218 218 218 220 217 219 217 215 216 213 218 222 226 229 230 230 231 231 233
162 201 243 281 322 260 218 256 257 252 251 265 272 267 281 293 288 279 278 263 250 242 232 225 228 231 226 219 219 219 218 218 217 218 220 219 222 220 217 214 217 224 226 227 226 228 233 228 233
204 140 148 182 212 229 232 263 250 238 264 237 261 281 282 312 308 302 295 291 279 263 250 233 230 231 227 221 218 217 217 219 220 220 220 219 222 221 215 217 219 221 223 224 225 227 229 221 224
143 177 222 192 186 244 280 247 253 234 262 299 303 281 308 310 316 313 309 303 288 274 252 251 236 233 229 225 219 215 213 215 217 218 219 220 220 215 216 217 219 222 224 223 219 218 222 215 228
211 203 194 198 190 255 310 266 206 247 255 305 299 295 310 307 325 317 317 318 306 295 283 265 239 227 228 225 221 218 216 213 214 216 217 215 217 215 217 217 218 221 222 220 217 212 208 216 221